Spirit of St Louis, MO

10:23 PM CDT on March 24, 2017 (GMT -0500)
Spirit Of Saint Louis

Weather History for KSUS - October, 2012

Change the Weather History Date:

Friday, October 5, 2012

  Actual Average Record
Temperature  
Mean Temperature 46 °F -  
Max Temperature 54 °F 70 °F 91 °F (2007)
Min Temperature 39 °F 45 °F 30 °F (2004)
Degree Days  
Heating Degree Days 18    
Moisture  
Dew Point 42 °F    
Average Humidity 84    
Maximum Humidity 93    
Minimum Humidity 71    
Precipitation  
Precipitation 0.31 in - - ()
Sea Level Pressure  
Sea Level Pressure 30.21 in    
Wind  
Wind Speed 7 mph (North)    
Max Wind Speed 13 mph    
Max Gust Speed -    
Visibility 9 miles    
Events Rain , Thunderstorm    
Averages and records for this station are not official NWS values.
T = Trace of Precipitation, MM = Missing Value Source: NWS Daily Summary

Daily Weather History Graph

Daily Weather History Graph

Search for Another Location

Airport or City:

Trip Planner

Search our weather history database for the weather conditions in past years. The results will help you decide how hot, cold, wet, or windy it might be!

Date:

Astronomy

Oct. 05, 2012 Rise Set
Actual Time 7:02 AM CDT 6:38 PM CDT
Civil Twilight 6:36 AM CDT 7:04 PM CDT
Nautical Twilight 6:05 AM CDT 7:35 PM CDT
Astronomical Twilight 5:34 AM CDT 8:06 PM CDT
Moon 10:05 PM CDT (10/5) 12:07 PM CDT (10/5)
Length of Visible Light 12h 28m
Length of Day
11h 35m
Waning Gibbous, 74% of the Moon is Illuminated
Oct 5
Waning Gibbous
Oct 8
Last Quarter
Oct 15
New
Oct 21
First Quarter
Oct 29
Full

Hourly Weather History & Observations

Time (CDT) Temp. Windchill Dew Point Humidity Pressure Visibility Wind Dir Wind Speed Gust Speed Precip Events Conditions
12:54 AM 54.0 °F - 46.0 °F 75% 30.19 in 10.0 mi North 6.9 mph - N/A   Mostly Cloudy
1:54 AM 53.1 °F - 45.0 °F 74% 30.19 in 10.0 mi North 6.9 mph - N/A   Mostly Cloudy
2:54 AM 53.1 °F - 44.1 °F 71% 30.20 in 10.0 mi North 9.2 mph - N/A   Overcast
3:54 AM 52.0 °F - 44.1 °F 74% 30.20 in 10.0 mi North 6.9 mph - N/A   Overcast
4:54 AM 51.1 °F - 43.0 °F 74% 30.20 in 10.0 mi North 6.9 mph - N/A   Overcast
5:54 AM 51.1 °F - 43.0 °F 74% 30.19 in 10.0 mi NNE 9.2 mph - N/A   Overcast
6:39 AM 50.0 °F - 44.6 °F 82% 30.23 in 10.0 mi North 6.9 mph - 0.00 in Thunderstorm Overcast
6:54 AM 48.9 °F - 45.0 °F 86% 30.20 in 10.0 mi ENE 6.9 mph - 0.00 in Rain , Thunderstorm Light Rain
7:24 AM 48.2 °F - 44.6 °F 87% 30.21 in 8.0 mi NNE 5.8 mph - 0.01 in Rain Light Rain
7:35 AM 48.2 °F - 46.4 °F 93% 30.22 in 10.0 mi North 6.9 mph - 0.02 in Rain , Thunderstorm Light Rain
7:54 AM 48.0 °F - 45.0 °F 89% 30.21 in 8.0 mi NNE 10.4 mph - 0.02 in Rain , Thunderstorm Light Rain
8:14 AM 48.2 °F - 44.6 °F 87% 30.24 in 2.5 mi Variable 5.8 mph - 0.01 in Rain , Thunderstorm Thunderstorms and Rain
8:36 AM 46.4 °F 43.5 °F 44.6 °F 93% 30.22 in 6.0 mi NE 5.8 mph - 0.11 in Rain , Thunderstorm Light Thunderstorms and Rain
8:46 AM 46.4 °F 42.9 °F 44.6 °F 93% 30.21 in 1.8 mi NE 6.9 mph - 0.15 in Rain , Thunderstorm Heavy Rain
8:54 AM 46.9 °F - 44.1 °F 90% 30.22 in 10.0 mi NE 4.6 mph - 0.17 in Rain , Thunderstorm Light Rain
9:01 AM 46.4 °F 43.5 °F 44.6 °F 93% 30.22 in 10.0 mi NNE 5.8 mph - 0.00 in Rain , Thunderstorm Light Rain
9:17 AM 48.2 °F - 44.6 °F 87% 30.21 in 10.0 mi NE 4.6 mph - N/A   Overcast
9:54 AM 48.0 °F - 45.0 °F 89% 30.22 in 10.0 mi North 8.1 mph - 0.00 in   Overcast
9:56 AM 48.2 °F - 44.6 °F 87% 30.21 in 10.0 mi North 9.2 mph - N/A   Overcast
10:54 AM 48.0 °F - 42.1 °F 80% 30.22 in 10.0 mi NNE 8.1 mph - N/A   Overcast
11:36 AM 46.4 °F 44.3 °F 42.8 °F 87% 30.22 in 9.0 mi North 4.6 mph - 0.01 in Rain , Thunderstorm Light Rain
11:46 AM 46.4 °F 41.9 °F 42.8 °F 87% 30.20 in 6.0 mi North 9.2 mph - 0.02 in Rain Rain
11:54 AM 46.9 °F - 43.0 °F 86% 30.21 in 6.0 mi North 10.4 mph - 0.02 in Rain Rain
12:54 PM 46.9 °F - 42.1 °F 83% 30.19 in 10.0 mi North 9.2 mph - 0.01 in Rain Light Rain
1:40 PM 46.4 °F 42.9 °F 41.0 °F 81% 30.17 in 10.0 mi NNE 6.9 mph - 0.01 in Rain , Thunderstorm Light Rain
1:54 PM 46.9 °F - 42.1 °F 83% 30.17 in 10.0 mi NNE 5.8 mph - 0.01 in   Overcast
2:30 PM 46.4 °F 42.9 °F 41.0 °F 81% 30.17 in 10.0 mi North 6.9 mph - 0.01 in Rain Light Rain
2:54 PM 46.9 °F - 41.0 °F 80% 30.19 in 10.0 mi North 6.9 mph - 0.01 in   Overcast
3:54 PM 46.0 °F 43.9 °F 42.1 °F 86% 30.19 in 2.5 mi North 4.6 mph - 0.06 in Rain Rain
4:01 PM 46.4 °F 44.3 °F 42.8 °F 87% 30.18 in 7.0 mi North 4.6 mph - 0.00 in Rain Light Rain
4:12 PM 46.4 °F 41.5 °F 42.8 °F 87% 30.19 in 6.0 mi NNW 10.4 mph - 0.00 in Rain Rain
4:54 PM 46.0 °F 40.2 °F 41.0 °F 83% 30.21 in 10.0 mi NNW 12.7 mph - 0.01 in Rain Light Rain
5:54 PM 46.0 °F 41.9 °F 39.9 °F 79% 30.22 in 10.0 mi NNW 8.1 mph - 0.00 in   Overcast
6:54 PM 46.0 °F - 39.0 °F 76% 30.19 in 10.0 mi Calm Calm - 0.00 in Rain Light Rain
7:54 PM 44.1 °F 42.5 °F 39.0 °F 82% 30.21 in 10.0 mi WNW 3.5 mph - 0.00 in   Scattered Clouds
8:54 PM 41.0 °F 38.0 °F 37.9 °F 89% 30.22 in 10.0 mi West 4.6 mph - N/A   Clear
9:54 PM 41.0 °F 38.0 °F 36.0 °F 82% 30.24 in 10.0 mi WNW 4.6 mph - N/A   Clear
10:54 PM 39.9 °F 36.7 °F 35.1 °F 83% 30.25 in 10.0 mi West 4.6 mph - N/A   Clear
11:54 PM 39.0 °F 36.8 °F 34.0 °F 82% 30.24 in 10.0 mi West 3.5 mph - N/A   Clear